UKV762 EGCC-BIKF

Flight info

Callsign UKV762
Flight time 2h 29m
Altitude 38000
Route POL N601 ERGAB DCT BARKU DCT RATSU/M079F380 DCT ALDAN DCT ASRUN ASRUN4N
Aircraft A320/M-SDE3FGIKRWXY/S

Departure

Time 2026-05-04 13:47
Airport Manchester Airport (EGCC)

Arrival

Time 2026-05-04 16:16
Airport Keflavik International Airport (BIKF)
Time Latitude Longitude Altitude Speed Heading
2026-05-04 13:16 53.36763 -2.28769 255 ft 0 kts 315°
2026-05-04 13:36 53.36756 -2.28756 255 ft 4 kts 315°
2026-05-04 13:36 53.36737 -2.28724 255 ft 4 kts 315°
2026-05-04 13:36 53.36721 -2.28698 255 ft 4 kts 310°
2026-05-04 13:37 53.36710 -2.28663 255 ft 4 kts 260°
2026-05-04 13:37 53.36717 -2.28638 255 ft 0 kts 224°
2026-05-04 13:37 53.36703 -2.28661 255 ft 4 kts 224°
2026-05-04 13:37 53.36694 -2.28676 255 ft 0 kts 224°
2026-05-04 13:41 53.36692 -2.28680 255 ft 2 kts 224°
2026-05-04 13:41 53.36668 -2.28719 255 ft 7 kts 225°
2026-05-04 13:41 53.36633 -2.28775 255 ft 9 kts 223°
2026-05-04 13:42 53.36511 -2.28642 255 ft 15 kts 134°
2026-05-04 13:42 53.36425 -2.28503 255 ft 19 kts 146°
2026-05-04 13:42 53.36308 -2.28407 255 ft 20 kts 134°
2026-05-04 13:42 53.36208 -2.28240 255 ft 21 kts 135°
2026-05-04 13:43 53.36101 -2.28061 255 ft 22 kts 137°
2026-05-04 13:43 53.35980 -2.27884 255 ft 24 kts 144°
2026-05-04 13:43 53.35818 -2.27862 251 ft 26 kts 187°
2026-05-04 13:43 53.35617 -2.27899 240 ft 31 kts 185°
2026-05-04 13:44 53.35430 -2.27964 237 ft 27 kts 216°
2026-05-04 13:44 53.35289 -2.28192 233 ft 29 kts 224°
2026-05-04 13:44 53.35155 -2.28459 228 ft 32 kts 232°
2026-05-04 13:44 53.35052 -2.28664 229 ft 19 kts 229°
2026-05-04 13:45 53.34968 -2.28821 226 ft 19 kts 226°
2026-05-04 13:45 53.34867 -2.29001 220 ft 24 kts 227°
2026-05-04 13:45 53.34749 -2.29225 213 ft 28 kts 231°
2026-05-04 13:45 53.34585 -2.29338 213 ft 25 kts 163°
2026-05-04 13:46 53.34552 -2.29199 217 ft 9 kts 54°
2026-05-04 13:46 53.34588 -2.29123 213 ft 8 kts 51°
2026-05-04 13:46 53.34616 -2.29064 214 ft 5 kts 51°
2026-05-04 13:46 53.34724 -2.28843 222 ft 59 kts 51°
2026-05-04 13:47 53.35170 -2.27922 237 ft 127 kts 51°
2026-05-04 13:47 53.35753 -2.26697 299 ft 166 kts 52°
2026-05-04 13:47 53.36481 -2.25099 842 ft 171 kts 52°
2026-05-04 13:47 53.37214 -2.23540 1597 ft 169 kts 52°
2026-05-04 13:48 53.37951 -2.21977 2233 ft 176 kts 52°
2026-05-04 13:48 53.38749 -2.20276 2556 ft 200 kts 52°
2026-05-04 13:48 53.39658 -2.18331 2945 ft 224 kts 52°
2026-05-04 13:48 53.40666 -2.16168 3375 ft 248 kts 52°
2026-05-04 13:49 53.41759 -2.13818 4038 ft 260 kts 52°
2026-05-04 13:49 53.42887 -2.11401 4746 ft 267 kts 49°
2026-05-04 13:49 53.44364 -2.09582 4937 ft 265 kts 18°
2026-05-04 13:49 53.46177 -2.09385 4984 ft 264 kts 352°
2026-05-04 13:50 53.48002 -2.09794 4987 ft 265 kts 353°
2026-05-04 13:50 53.49830 -2.10156 4988 ft 265 kts 353°
2026-05-04 13:50 53.51669 -2.10305 4987 ft 265 kts
2026-05-04 13:50 53.53508 -2.10140 4988 ft 265 kts
2026-05-04 13:51 53.55365 -2.09922 5537 ft 268 kts
2026-05-04 13:51 53.57239 -2.09845 6503 ft 271 kts
2026-05-04 13:51 53.59098 -2.09849 7322 ft 275 kts 359°
2026-05-04 13:51 53.61061 -2.09897 8194 ft 278 kts 358°
2026-05-04 13:52 53.64975 -2.10038 9914 ft 285 kts 358°
2026-05-04 13:52 53.66990 -2.10109 10439 ft 300 kts 358°
2026-05-04 13:52 53.69158 -2.10181 10688 ft 323 kts 358°
2026-05-04 13:53 53.71465 -2.10252 11049 ft 340 kts 358°
2026-05-04 13:53 53.73859 -2.10509 11677 ft 347 kts 350°
2026-05-04 13:53 53.76200 -2.11543 12357 ft 350 kts 338°
2026-05-04 13:54 53.80773 -2.14683 13757 ft 358 kts 337°
2026-05-04 13:54 53.83095 -2.16274 14395 ft 362 kts 337°
2026-05-04 13:54 53.87815 -2.19500 15659 ft 369 kts 337°
2026-05-04 13:55 53.90204 -2.21134 16292 ft 372 kts 337°
2026-05-04 13:55 53.95049 -2.24451 17509 ft 379 kts 337°
2026-05-04 13:55 53.96671 -2.25565 17904 ft 381 kts 337°
2026-05-04 13:56 53.99633 -2.27600 18602 ft 384 kts 337°
2026-05-04 13:56 54.02117 -2.29309 19138 ft 386 kts 338°
2026-05-04 13:56 54.07133 -2.32776 20150 ft 392 kts 338°
2026-05-04 13:57 54.09667 -2.34532 20667 ft 394 kts 338°
2026-05-04 13:57 54.12208 -2.36297 21185 ft 396 kts 338°
2026-05-04 13:58 54.19783 -2.42366 22581 ft 406 kts 333°
2026-05-04 13:58 54.24816 -2.46864 23560 ft 410 kts 333°
2026-05-04 13:58 54.27347 -2.49129 23968 ft 412 kts 333°
2026-05-04 13:59 54.29891 -2.51410 24367 ft 414 kts 334°
2026-05-04 13:59 54.32446 -2.53704 24750 ft 416 kts 333°
2026-05-04 13:59 54.37590 -2.58319 25498 ft 419 kts 334°
2026-05-04 14:00 54.40182 -2.60647 25874 ft 421 kts 334°
2026-05-04 14:00 54.45391 -2.65354 26606 ft 425 kts 334°
2026-05-04 14:00 54.48011 -2.67729 26971 ft 427 kts 333°
2026-05-04 14:01 54.50638 -2.70110 27382 ft 427 kts 333°
2026-05-04 14:01 54.53274 -2.72500 27753 ft 429 kts 334°
2026-05-04 14:01 54.58574 -2.77312 28440 ft 432 kts 334°
2026-05-04 14:02 54.61244 -2.79744 28778 ft 434 kts 334°
2026-05-04 14:02 54.63917 -2.82180 29099 ft 436 kts 334°
2026-05-04 14:02 54.66604 -2.84630 29399 ft 438 kts 334°
2026-05-04 14:02 54.69300 -2.87089 29710 ft 439 kts 334°
2026-05-04 14:03 54.72006 -2.89565 30015 ft 441 kts 333°
2026-05-04 14:03 54.74720 -2.92057 30337 ft 441 kts 333°
2026-05-04 14:03 54.77418 -2.94544 30705 ft 439 kts 333°
2026-05-04 14:03 54.80113 -2.97029 31047 ft 438 kts 333°
2026-05-04 14:04 54.85459 -3.01967 31722 ft 438 kts 333°
2026-05-04 14:04 54.88142 -3.04450 32025 ft 438 kts 333°
2026-05-04 14:04 54.90825 -3.06937 32351 ft 437 kts 332°
2026-05-04 14:05 54.96189 -3.11906 33029 ft 436 kts 333°
2026-05-04 14:05 54.98861 -3.14384 33362 ft 435 kts 332°
2026-05-04 14:05 55.01529 -3.16868 33693 ft 435 kts 332°
2026-05-04 14:06 55.03329 -3.18549 33921 ft 434 kts 332°
2026-05-04 14:06 55.05954 -3.21006 34232 ft 433 kts 331°
2026-05-04 14:06 55.08609 -3.23495 34507 ft 433 kts 331°
2026-05-04 14:06 55.11265 -3.25987 34762 ft 433 kts 331°
2026-05-04 14:07 55.13918 -3.28480 35005 ft 433 kts 331°
2026-05-04 14:07 55.16574 -3.30977 35247 ft 433 kts 331°
2026-05-04 14:07 55.19230 -3.33476 35482 ft 433 kts 331°
2026-05-04 14:07 55.21886 -3.35981 35714 ft 433 kts 331°
2026-05-04 14:08 55.24538 -3.38486 35959 ft 433 kts 330°
2026-05-04 14:08 55.27188 -3.40991 36201 ft 433 kts 330°
2026-05-04 14:08 55.29837 -3.43499 36444 ft 432 kts 330°
2026-05-04 14:08 55.32482 -3.46007 36645 ft 432 kts 330°
2026-05-04 14:09 55.37783 -3.51031 37009 ft 433 kts 330°
2026-05-04 14:09 55.40434 -3.53556 37230 ft 433 kts 330°
2026-05-04 14:10 55.45720 -3.58622 37641 ft 433 kts 330°
2026-05-04 14:10 55.48367 -3.61164 37821 ft 433 kts 330°
2026-05-04 14:10 55.51014 -3.63709 38001 ft 434 kts 329°
2026-05-04 14:11 55.56319 -3.68811 38040 ft 434 kts 330°
2026-05-04 14:11 55.64283 -3.76488 38025 ft 434 kts 329°
2026-05-04 14:12 55.69585 -3.81617 38043 ft 434 kts 329°
2026-05-04 14:13 55.77531 -3.89339 38047 ft 433 kts 329°
2026-05-04 14:13 55.82814 -3.94500 38053 ft 433 kts 329°
2026-05-04 14:14 55.88101 -3.99672 38055 ft 434 kts 329°
2026-05-04 14:14 55.95995 -4.07442 38061 ft 434 kts 329°
2026-05-04 14:15 56.06587 -4.17917 38063 ft 434 kts 329°
2026-05-04 14:16 56.14498 -4.25782 38065 ft 434 kts 329°
2026-05-04 14:17 56.22375 -4.33639 38060 ft 434 kts 329°
2026-05-04 14:18 56.30277 -4.41551 38063 ft 433 kts 328°
2026-05-04 14:19 56.40764 -4.52163 38055 ft 432 kts 328°
2026-05-04 14:19 56.46013 -4.57482 38054 ft 432 kts 328°
2026-05-04 14:20 56.51249 -4.62809 38070 ft 431 kts 327°
2026-05-04 14:20 56.56477 -4.68151 38062 ft 431 kts 327°
2026-05-04 14:21 56.64316 -4.76178 38057 ft 431 kts 327°
2026-05-04 14:21 56.69535 -4.81544 38053 ft 431 kts 327°
2026-05-04 14:22 56.74761 -4.86916 38074 ft 431 kts 327°
2026-05-04 14:22 56.79970 -4.92314 38074 ft 431 kts 327°
2026-05-04 14:23 56.87737 -5.00394 38061 ft 430 kts 327°
2026-05-04 14:24 56.92938 -5.05811 38059 ft 430 kts 327°
2026-05-04 14:24 56.98133 -5.11247 38057 ft 430 kts 326°
2026-05-04 14:25 57.03314 -5.16706 38048 ft 428 kts 326°
2026-05-04 14:25 57.11044 -5.24852 38049 ft 427 kts 326°
2026-05-04 14:26 57.16191 -5.30305 38049 ft 427 kts 326°
2026-05-04 14:26 57.21335 -5.35781 38048 ft 427 kts 326°
2026-05-04 14:27 57.26476 -5.41269 38074 ft 427 kts 326°
2026-05-04 14:27 57.31608 -5.46751 38066 ft 426 kts 326°
2026-05-04 14:28 57.36727 -5.52232 38068 ft 425 kts 326°
2026-05-04 14:28 57.41837 -5.57728 38058 ft 424 kts 326°
2026-05-04 14:29 57.52024 -5.68729 38044 ft 423 kts 326°
2026-05-04 14:30 57.57097 -5.74261 38047 ft 422 kts 325°
2026-05-04 14:31 57.64687 -5.82558 38043 ft 421 kts 325°
2026-05-04 14:32 57.74771 -5.93623 38034 ft 422 kts 325°
2026-05-04 14:32 57.79830 -5.99193 38061 ft 422 kts 325°
2026-05-04 14:33 57.84912 -6.04819 38050 ft 421 kts 325°
2026-05-04 14:33 57.89927 -6.10387 38036 ft 421 kts 325°
2026-05-04 14:34 57.94965 -6.16008 38019 ft 421 kts 325°
2026-05-04 14:34 57.99998 -6.21645 38018 ft 421 kts 325°
2026-05-04 14:35 58.05020 -6.27288 38047 ft 420 kts 325°
2026-05-04 14:35 58.10058 -6.32950 38031 ft 420 kts 325°
2026-05-04 14:36 58.15082 -6.38602 38017 ft 420 kts 325°
2026-05-04 14:36 58.20101 -6.44271 38015 ft 420 kts 325°
2026-05-04 14:37 58.25112 -6.49967 38012 ft 420 kts 324°
2026-05-04 14:37 58.30122 -6.55679 38018 ft 420 kts 324°
2026-05-04 14:38 58.35124 -6.61402 38041 ft 419 kts 324°
2026-05-04 14:38 58.40121 -6.67142 38038 ft 419 kts 324°
2026-05-04 14:39 58.45114 -6.72890 38038 ft 419 kts 324°
2026-05-04 14:39 58.50103 -6.78657 38036 ft 419 kts 324°
2026-05-04 14:40 58.57587 -6.87335 38033 ft 419 kts 324°
2026-05-04 14:40 58.62535 -6.93102 38032 ft 419 kts 324°
2026-05-04 14:41 58.67547 -6.98961 38031 ft 419 kts 324°
2026-05-04 14:42 58.77468 -7.10633 38030 ft 419 kts 324°
2026-05-04 14:42 58.82444 -7.16517 38034 ft 419 kts 324°
2026-05-04 14:43 58.87413 -7.22395 38035 ft 417 kts 324°
2026-05-04 14:43 58.92356 -7.28279 38033 ft 417 kts 324°
2026-05-04 14:44 58.97300 -7.34171 38031 ft 417 kts 324°
2026-05-04 14:44 59.02236 -7.40075 38028 ft 417 kts 324°
2026-05-04 14:45 59.07165 -7.45997 38027 ft 416 kts 324°
2026-05-04 14:45 59.12092 -7.51933 38064 ft 417 kts 324°
2026-05-04 14:46 59.17013 -7.57898 38046 ft 417 kts 324°
2026-05-04 14:46 59.21934 -7.63881 38044 ft 417 kts 324°
2026-05-04 14:47 59.26858 -7.69872 38041 ft 417 kts 324°
2026-05-04 14:47 59.31782 -7.75879 38014 ft 417 kts 324°
2026-05-04 14:48 59.35871 -7.80891 38030 ft 417 kts 324°
2026-05-04 14:48 59.40789 -7.86951 38074 ft 417 kts 324°
2026-05-04 14:49 59.45704 -7.93007 38065 ft 417 kts 324°
2026-05-04 14:49 59.50612 -7.99089 38064 ft 417 kts 324°
2026-05-04 14:50 59.55514 -8.05194 38061 ft 417 kts 323°
2026-05-04 14:50 59.60415 -8.11308 38059 ft 417 kts 323°
2026-05-04 14:51 59.65325 -8.17442 38061 ft 416 kts 323°
2026-05-04 14:51 59.70202 -8.23565 38058 ft 415 kts 323°
2026-05-04 14:52 59.75078 -8.29711 38062 ft 415 kts 323°
2026-05-04 14:52 59.79946 -8.35879 38058 ft 415 kts 323°
2026-05-04 14:53 59.84788 -8.42026 38062 ft 416 kts 323°
2026-05-04 14:53 59.89662 -8.48226 38058 ft 415 kts 323°
2026-05-04 14:54 59.94527 -8.54440 38060 ft 415 kts 323°
2026-05-04 14:54 59.99388 -8.60674 38056 ft 415 kts 323°
2026-05-04 14:55 60.04247 -8.66939 38038 ft 415 kts 323°
2026-05-04 14:55 60.09097 -8.73214 38050 ft 415 kts 323°
2026-05-04 14:56 60.13957 -8.79496 38056 ft 415 kts 323°
2026-05-04 14:56 60.18801 -8.85789 38066 ft 414 kts 323°
2026-05-04 14:57 60.23620 -8.92077 38062 ft 412 kts 323°
2026-05-04 14:57 60.28432 -8.98392 38060 ft 413 kts 323°
2026-05-04 14:58 60.33240 -9.04723 38069 ft 413 kts 323°
2026-05-04 14:58 60.38053 -9.11083 38071 ft 413 kts 323°
2026-05-04 14:59 60.42857 -9.17452 38068 ft 413 kts 323°
2026-05-04 15:00 60.50061 -9.27043 38090 ft 413 kts 323°
2026-05-04 15:00 60.54870 -9.33449 38083 ft 413 kts 322°
2026-05-04 15:01 60.62046 -9.43138 38064 ft 412 kts 321°
2026-05-04 15:01 60.66674 -9.49903 38081 ft 412 kts 320°
2026-05-04 15:02 60.71299 -9.56902 38092 ft 411 kts 320°
2026-05-04 15:02 60.75876 -9.63772 38049 ft 410 kts 320°
2026-05-04 15:03 60.80487 -9.70634 38057 ft 410 kts 320°
2026-05-04 15:03 60.85103 -9.77521 38062 ft 410 kts 320°
2026-05-04 15:04 60.89720 -9.84433 38069 ft 410 kts 320°
2026-05-04 15:04 60.94321 -9.91381 38071 ft 410 kts 320°
2026-05-04 15:05 60.98837 -9.98551 38079 ft 406 kts 313°
2026-05-04 15:05 61.02149 -10.07798 38069 ft 401 kts 298°
2026-05-04 15:06 61.04884 -10.17843 38065 ft 402 kts 298°
2026-05-04 15:07 61.08989 -10.32948 38071 ft 403 kts 298°
2026-05-04 15:07 61.11723 -10.43057 38074 ft 403 kts 298°
2026-05-04 15:08 61.14449 -10.53190 38058 ft 403 kts 298°
2026-05-04 15:08 61.17170 -10.63357 38075 ft 403 kts 298°
2026-05-04 15:09 61.19874 -10.73539 38079 ft 403 kts 298°
2026-05-04 15:09 61.22580 -10.83743 38082 ft 403 kts 298°
2026-05-04 15:10 61.26620 -10.99077 38093 ft 404 kts 298°
2026-05-04 15:11 61.30642 -11.14465 38095 ft 404 kts 297°
2026-05-04 15:11 61.33317 -11.24748 38096 ft 404 kts 297°
2026-05-04 15:12 61.35985 -11.35045 38082 ft 404 kts 297°
2026-05-04 15:12 61.38639 -11.45359 38086 ft 404 kts 297°
2026-05-04 15:13 61.41296 -11.55689 38084 ft 404 kts 297°
2026-05-04 15:13 61.43941 -11.66027 38119 ft 404 kts 297°
2026-05-04 15:14 61.46559 -11.76318 38108 ft 404 kts 297°
2026-05-04 15:14 61.49184 -11.86694 38102 ft 403 kts 297°
2026-05-04 15:15 61.51808 -11.97093 38094 ft 403 kts 297°
2026-05-04 15:15 61.54423 -12.07495 38083 ft 403 kts 297°
2026-05-04 15:16 61.58312 -12.23139 38101 ft 403 kts 297°
2026-05-04 15:17 61.62187 -12.38795 38109 ft 402 kts 297°
2026-05-04 15:17 61.66042 -12.54466 38135 ft 402 kts 296°
2026-05-04 15:18 61.68594 -12.64940 38117 ft 402 kts 296°
2026-05-04 15:19 61.72427 -12.80672 38119 ft 402 kts 296°
2026-05-04 15:19 61.76227 -12.96453 38093 ft 402 kts 296°
2026-05-04 15:20 61.78749 -13.06990 38108 ft 402 kts 296°
2026-05-04 15:20 61.81268 -13.17551 38112 ft 402 kts 296°
2026-05-04 15:21 61.83780 -13.28135 38111 ft 402 kts 296°
2026-05-04 15:22 61.87507 -13.43925 38144 ft 399 kts 296°
2026-05-04 15:22 61.91234 -13.59807 38111 ft 402 kts 296°
2026-05-04 15:23 61.93707 -13.70441 38111 ft 402 kts 296°
2026-05-04 15:23 61.96172 -13.81089 38115 ft 401 kts 296°
2026-05-04 15:24 62.01054 -14.02390 38125 ft 402 kts 296°
2026-05-04 15:25 62.03504 -14.13088 38130 ft 402 kts 296°
2026-05-04 15:26 62.07148 -14.29167 38136 ft 402 kts 295°
2026-05-04 15:26 62.10624 -14.44587 38141 ft 400 kts 296°
2026-05-04 15:27 62.14220 -14.60664 38140 ft 400 kts 295°
2026-05-04 15:28 62.17787 -14.76783 38116 ft 399 kts 295°
2026-05-04 15:29 62.21330 -14.92932 38136 ft 399 kts 295°
2026-05-04 15:30 62.29171 -15.28982 38190 ft 400 kts 295°
2026-05-04 15:31 62.32663 -15.45256 38176 ft 400 kts 295°
2026-05-04 15:32 62.38443 -15.72467 38173 ft 399 kts 294°
2026-05-04 15:34 62.44152 -15.99684 38173 ft 399 kts 294°
2026-05-04 15:34 62.47563 -16.16095 38172 ft 399 kts 294°
2026-05-04 15:35 62.50945 -16.32547 38184 ft 399 kts 294°
2026-05-04 15:36 62.54317 -16.49057 38142 ft 400 kts 294°
2026-05-04 15:36 62.56556 -16.60108 38148 ft 401 kts 294°
2026-05-04 15:37 62.58790 -16.71190 38154 ft 401 kts 294°
2026-05-04 15:37 62.61023 -16.82305 38162 ft 402 kts 294°
2026-05-04 15:38 62.63246 -16.93451 38167 ft 402 kts 293°
2026-05-04 15:38 62.65465 -17.04619 38171 ft 402 kts 293°
2026-05-04 15:39 62.67673 -17.15805 38180 ft 402 kts 293°
2026-05-04 15:40 62.70963 -17.32594 38139 ft 400 kts 293°
2026-05-04 15:40 62.73137 -17.43768 38151 ft 401 kts 293°
2026-05-04 15:41 62.75313 -17.54974 38163 ft 401 kts 293°
2026-05-04 15:41 62.77471 -17.66196 38174 ft 401 kts 293°
2026-05-04 15:42 62.79626 -17.77457 38179 ft 402 kts 293°
2026-05-04 15:42 62.81768 -17.88742 38182 ft 402 kts 293°
2026-05-04 15:43 62.83903 -18.00047 38193 ft 402 kts 292°
2026-05-04 15:43 62.86029 -18.11352 38187 ft 402 kts 292°
2026-05-04 15:44 62.88146 -18.22682 38182 ft 401 kts 292°
2026-05-04 15:44 62.90249 -18.33940 38184 ft 401 kts 292°
2026-05-04 15:45 62.92350 -18.45276 38189 ft 401 kts 292°
2026-05-04 15:45 62.94443 -18.56644 38191 ft 402 kts 292°
2026-05-04 15:46 62.96530 -18.68123 38198 ft 401 kts 292°
2026-05-04 15:46 62.98918 -18.79098 38201 ft 402 kts 304°
2026-05-04 15:46 63.00585 -18.84153 38032 ft 403 kts 305°
2026-05-04 15:47 63.02211 -18.89057 37766 ft 401 kts 304°
2026-05-04 15:47 63.03867 -18.94084 37496 ft 400 kts 304°
2026-05-04 15:47 63.05470 -18.98974 37236 ft 398 kts 304°
2026-05-04 15:47 63.07109 -19.03988 36974 ft 397 kts 304°
2026-05-04 15:48 63.08697 -19.08856 36754 ft 395 kts 304°
2026-05-04 15:48 63.10298 -19.13787 36504 ft 394 kts 304°
2026-05-04 15:48 63.13461 -19.23567 35960 ft 380 kts 304°
2026-05-04 15:49 63.14986 -19.28284 35720 ft 374 kts 304°
2026-05-04 15:49 63.16477 -19.32905 35485 ft 378 kts 304°
2026-05-04 15:49 63.18018 -19.37686 35241 ft 384 kts 304°
2026-05-04 15:50 63.20963 -19.46861 34793 ft 385 kts 304°
2026-05-04 15:50 63.22512 -19.51707 34555 ft 385 kts 304°
2026-05-04 15:50 63.24057 -19.56542 34327 ft 383 kts 304°
2026-05-04 15:50 63.25596 -19.61359 34083 ft 382 kts 304°
2026-05-04 15:51 63.27152 -19.66244 33797 ft 382 kts 304°
2026-05-04 15:51 63.28683 -19.71062 33116 ft 382 kts 303°
2026-05-04 15:51 63.30209 -19.75900 32390 ft 380 kts 303°
2026-05-04 15:51 63.31697 -19.80622 32250 ft 365 kts 303°
2026-05-04 15:52 63.33126 -19.85149 32108 ft 350 kts 303°
2026-05-04 15:52 63.34506 -19.89515 31896 ft 339 kts 303°
2026-05-04 15:52 63.35845 -19.93781 31505 ft 333 kts 303°
2026-05-04 15:52 63.37148 -19.97948 30848 ft 324 kts 303°
2026-05-04 15:53 63.38426 -20.02035 30060 ft 318 kts 303°
2026-05-04 15:53 63.39678 -20.06047 29173 ft 312 kts 303°
2026-05-04 15:53 63.40907 -20.09987 28281 ft 307 kts 303°
2026-05-04 15:53 63.42114 -20.13866 27484 ft 301 kts 303°
2026-05-04 15:54 63.43301 -20.17682 27024 ft 297 kts 303°
2026-05-04 15:54 63.44472 -20.21452 26595 ft 293 kts 303°
2026-05-04 15:54 63.45625 -20.25167 26177 ft 289 kts 303°
2026-05-04 15:54 63.46762 -20.28853 25762 ft 286 kts 303°
2026-05-04 15:55 63.47862 -20.32434 25329 ft 283 kts 303°
2026-05-04 15:55 63.48986 -20.36079 24940 ft 279 kts 303°
2026-05-04 15:55 63.50081 -20.39632 24563 ft 276 kts 303°
2026-05-04 15:55 63.51161 -20.43150 24184 ft 273 kts 302°
2026-05-04 15:56 63.52226 -20.46630 23836 ft 270 kts 303°
2026-05-04 15:56 63.53284 -20.50079 23421 ft 267 kts 303°
2026-05-04 15:56 63.54326 -20.53487 23049 ft 263 kts 303°
2026-05-04 15:56 63.55308 -20.56905 22658 ft 259 kts 298°
2026-05-04 15:57 63.56034 -20.60578 22273 ft 257 kts 290°
2026-05-04 15:57 63.56522 -20.64418 21934 ft 255 kts 288°
2026-05-04 15:57 63.56987 -20.68230 21582 ft 252 kts 288°
2026-05-04 15:57 63.57453 -20.72003 21220 ft 250 kts 288°
2026-05-04 15:58 63.57915 -20.75755 20856 ft 248 kts 288°
2026-05-04 15:58 63.58370 -20.79480 20494 ft 247 kts 288°
2026-05-04 15:58 63.58824 -20.83196 20126 ft 246 kts 288°
2026-05-04 15:58 63.59278 -20.86903 19751 ft 246 kts 288°
2026-05-04 15:59 63.59730 -20.90607 19371 ft 246 kts 288°
2026-05-04 15:59 63.60186 -20.94376 18976 ft 247 kts 288°
2026-05-04 15:59 63.60637 -20.98108 18578 ft 248 kts 288°
2026-05-04 15:59 63.61091 -21.01858 18136 ft 249 kts 288°
2026-05-04 16:00 63.61542 -21.05616 17714 ft 249 kts 288°
2026-05-04 16:00 63.61992 -21.09381 17305 ft 249 kts 288°
2026-05-04 16:00 63.62441 -21.13157 16892 ft 250 kts 288°
2026-05-04 16:00 63.62891 -21.16932 16486 ft 250 kts 288°
2026-05-04 16:01 63.63345 -21.20723 16074 ft 251 kts 288°
2026-05-04 16:01 63.63799 -21.24533 15663 ft 253 kts 288°
2026-05-04 16:01 63.64253 -21.28359 15253 ft 254 kts 288°
2026-05-04 16:01 63.64701 -21.32162 15047 ft 247 kts 288°
2026-05-04 16:02 63.65130 -21.35834 14924 ft 239 kts 288°
2026-05-04 16:02 63.65545 -21.39390 14787 ft 231 kts 288°
2026-05-04 16:02 63.66350 -21.46306 13906 ft 225 kts 288°
2026-05-04 16:03 63.66750 -21.49737 13303 ft 224 kts 288°
2026-05-04 16:03 63.67145 -21.53104 12703 ft 225 kts 288°
2026-05-04 16:03 63.67543 -21.56505 12230 ft 222 kts 288°
2026-05-04 16:03 63.67928 -21.59818 11890 ft 217 kts 288°
2026-05-04 16:04 63.68052 -21.63249 11560 ft 225 kts 270°
2026-05-04 16:04 63.67140 -21.70093 10886 ft 242 kts 243°
2026-05-04 16:04 63.66130 -21.73139 10578 ft 243 kts 239°
2026-05-04 16:05 63.65356 -21.76382 10262 ft 229 kts 264°
2026-05-04 16:05 63.65447 -21.79805 9913 ft 217 kts 295°
2026-05-04 16:05 63.67350 -21.84962 9110 ft 217 kts 319°
2026-05-04 16:06 63.68486 -21.87210 8722 ft 218 kts 319°
2026-05-04 16:06 63.70950 -21.94238 7903 ft 219 kts 293°
2026-05-04 16:07 63.71670 -21.98541 7729 ft 223 kts 293°
2026-05-04 16:07 63.73393 -22.08714 7227 ft 243 kts 293°
2026-05-04 16:08 63.73917 -22.12269 6890 ft 240 kts 287°
2026-05-04 16:08 63.75128 -22.23205 5557 ft 247 kts 287°
2026-05-04 16:09 63.75948 -22.30758 4951 ft 238 kts 288°
2026-05-04 16:09 63.76727 -22.37849 4594 ft 228 kts 290°
2026-05-04 16:10 63.77811 -22.44561 4126 ft 227 kts 293°
2026-05-04 16:11 63.79362 -22.54174 3335 ft 203 kts 293°
2026-05-04 16:11 63.79858 -22.57190 3206 ft 202 kts 297°
2026-05-04 16:12 63.82947 -22.60583 2699 ft 162 kts
2026-05-04 16:12 63.85963 -22.60555 2315 ft 135 kts
2026-05-04 16:13 63.87783 -22.60552 1982 ft 128 kts 360°
2026-05-04 16:13 63.89549 -22.60550 1616 ft 127 kts
2026-05-04 16:14 63.91008 -22.60549 1336 ft 125 kts
2026-05-04 16:14 63.92757 -22.60548 944 ft 125 kts 360°
2026-05-04 16:15 63.95362 -22.60546 410 ft 125 kts
2026-05-04 16:16 63.97081 -22.60545 162 ft 113 kts
2026-05-04 16:16 63.98248 -22.60781 167 ft 25 kts 327°
2026-05-04 16:17 63.98438 -22.60943 167 ft 10 kts
2026-05-04 16:18 63.98704 -22.60937 167 ft 11 kts
2026-05-04 16:18 63.98784 -22.60934 166 ft 13 kts
2026-05-04 16:19 63.99069 -22.60943 169 ft 17 kts 359°
2026-05-04 16:19 63.99171 -22.61222 158 ft 15 kts 273°
2026-05-04 16:20 63.99172 -22.61926 143 ft 13 kts 270°
2026-05-04 16:20 63.99183 -22.62293 143 ft 1 kts 317°
2026-05-04 16:21 63.99258 -22.62305 143 ft 3 kts
2026-05-04 16:22 63.99284 -22.62304 143 ft 0 kts